VK6CV Weather Reports


time (UTC)temp
C
wind
direction
speed
KPH
gust
KPH
rain 1hr
cm
rain 24hr
cm
rain mn
cm
humidity
%
barometer
mb
20260505003552 14 106 6.4 14.5 0.00 0.00 0.00 73 1026.6
20260505003059 13 80 4.8 14.5 0.00 0.00 0.00 75 1026.5
20260505002552 13 90 8.0 14.5 0.00 0.00 0.00 74 1026.5
20260505002052 13 57 4.8 11.3 0.00 0.00 0.00 74 1026.3
20260505001551 13 63 3.2 17.7 0.00 0.00 0.00 75 1026.3
20260505001051 13 56 6.4 17.7 0.00 0.00 0.00 75 1026.3
20260505000551 13 93 6.4 14.5 0.00 0.00 0.00 76 1026.2
20260505000109 13 77 6.4 14.5 0.00 0.00 0.00 76 1026.1
20260504235552 13 53 6.4 14.5 0.00 0.00 0.00 77 1026.0
20260504235052 12 65 6.4 17.7 0.00 0.00 0.00 78 1025.9
20260504234552 12 27 6.4 17.7 0.00 0.00 0.00 78 1025.7
20260504234051 12 66 9.7 17.7 0.00 0.00 0.00 79 1025.8
20260504233552 12 84 6.4 17.7 0.00 0.00 0.00 79 1025.8
20260504233050 12 74 4.8 11.3 0.00 0.00 0.00 80 1025.7
20260504232553 12 77 4.8 11.3 0.00 0.00 0.00 81 1025.8
20260504232051 12 63 3.2 11.3 0.00 0.00 0.00 82 1025.7
20260504231620 11 142 4.8 8.0 0.00 0.00 0.00 83 1025.7
20260504231052 11 141 1.6 8.0 0.00 0.00 0.00 84 1025.7
20260504230552 11 141 1.6 8.0 0.00 0.00 0.00 84 1025.6
20260504230052 11 0 0.0 4.8 0.00 0.00 0.00 84 1025.5
20260504225552 11 141 1.6 4.8 0.00 0.00 0.00 84 1025.5
20260504225054 11 0 0.0 3.2 0.00 0.00 0.00 84 1025.3
20260504224553 11 141 0.0 1.6 0.00 0.00 0.00 84 1025.3
20260504224052 11 0 0.0 1.6 0.00 0.00 0.00 84 1025.2
20260504223552 11 0 0.0 3.2 0.00 0.00 0.00 84 1025.1
20260504223050 11 0 0.0 3.2 0.00 0.00 0.00 84 1025.0
20260504222552 11 141 0.0 1.6 0.00 0.00 0.00 84 1024.9
20260504222051 11 0 0.0 1.6 0.00 0.00 0.00 84 1025.0
20260504221631 11 0 0.0 1.6 0.00 0.00 0.00 84 1024.9
20260504221051 11 0 0.0 1.6 0.00 0.00 0.00 85 1024.9
20260504220552 11 0 0.0 1.6 0.00 0.00 0.00 85 1024.9
20260504220055 11 0 0.0 1.6 0.00 0.00 0.00 85 1024.9
20260504215552 11 0 0.0 1.6 0.00 0.00 0.00 84 1024.8
20260504215052 11 0 0.0 3.2 0.00 0.00 0.00 84 1024.8
20260504214551 11 0 0.0 3.2 0.00 0.00 0.00 84 1024.8
20260504214052 11 0 0.0 3.2 0.00 0.00 0.00 84 1024.7
20260504213552 11 0 0.0 3.2 0.00 0.00 0.00 84 1024.7
20260504213059 11 141 0.0 1.6 0.00 0.00 0.00 84 1024.6
20260504212552 11 0 0.0 3.2 0.00 0.00 0.00 84 1024.6
20260504212051 11 0 0.0 3.2 0.00 0.00 0.00 84 1024.6
20260504211553 11 141 0.0 3.2 0.00 0.00 0.00 84 1024.7
20260504211052 11 0 0.0 1.6 0.00 0.00 0.00 84 1024.8
20260504210552 11 0 0.0 3.2 0.00 0.00 0.00 84 1024.8
20260504210052 11 0 0.0 3.2 0.00 0.00 0.00 84 1024.8
20260504205551 11 141 0.0 1.6 0.00 0.00 0.00 83 1024.8
20260504205051 11 0 0.0 3.2 0.00 0.00 0.00 84 1024.9
20260504204555 11 0 0.0 3.2 0.00 0.00 0.00 84 1024.9
20260504204052 11 0 0.0 3.2 0.00 0.00 0.00 83 1024.9
20260504203554 11 0 0.0 3.2 0.00 0.00 0.00 83 1024.8
20260504203054 11 0 0.0 4.8 0.00 0.00 0.00 83 1024.9
20260504202551 11 141 1.6 4.8 0.00 0.00 0.00 83 1025.0
20260504202052 11 141 0.0 3.2 0.00 0.00 0.00 83 1024.9
20260504201554 11 141 1.6 3.2 0.00 0.00 0.00 83 1024.8
20260504201052 11 0 0.0 3.2 0.00 0.00 0.00 83 1024.8
20260504200552 11 0 1.6 3.2 0.00 0.00 0.00 84 1024.8
20260504200053 11 0 0.0 1.6 0.00 0.00 0.00 83 1024.8
20260504195551 11 0 0.0 1.6 0.00 0.00 0.00 83 1024.8
20260504195053 11 0 0.0 1.6 0.00 0.00 0.00 82 1024.9
20260504194601 11 0 0.0 1.6 0.00 0.00 0.00 82 1024.9
20260504194052 11 0 0.0 0.0 0.00 0.00 0.00 83 1024.8
20260504193552 11 0 0.0 0.0 0.00 0.00 0.00 82 1024.9
20260504193051 11 0 0.0 0.0 0.00 0.00 0.00 82 1025.0
20260504192551 11 0 0.0 3.2 0.00 0.00 0.00 82 1025.0
20260504192052 11 0 0.0 3.2 0.00 0.00 0.00 82 1025.0
20260504191615 11 0 0.0 3.2 0.00 0.00 0.00 82 1025.0
20260504191052 11 0 0.0 0.0 0.00 0.00 0.00 81 1025.0
20260504190552 11 0 0.0 0.0 0.00 0.00 0.00 80 1025.1
20260504190058 11 0 0.0 1.6 0.00 0.00 0.00 80 1025.0
20260504185552 11 0 0.0 1.6 0.00 0.00 0.00 80 1025.1
20260504185052 12 0 0.0 0.0 0.00 0.00 0.00 80 1025.1
20260504184602 12 0 0.0 1.6 0.00 0.00 0.00 80 1025.0
20260504184052 12 0 0.0 1.6 0.00 0.00 0.00 80 1025.1
20260504183552 12 0 0.0 1.6 0.00 0.00 0.00 80 1025.0
20260504183051 12 0 0.0 1.6 0.00 0.00 0.00 79 1025.1
20260504182557 12 0 0.0 1.6 0.00 0.00 0.00 79 1025.2
20260504182051 12 0 0.0 3.2 0.00 0.00 0.00 79 1025.2
20260504181551 12 0 0.0 3.2 0.00 0.00 0.00 78 1025.1
20260504181052 12 141 0.0 3.2 0.00 0.00 0.00 77 1025.3
20260504180552 12 0 0.0 1.6 0.00 0.00 0.00 77 1025.3
20260504180053 13 0 0.0 6.4 0.00 0.00 0.00 77 1025.3
20260504175552 13 0 0.0 6.4 0.00 0.00 0.00 77 1025.3
20260504175053 13 0 1.6 6.4 0.00 0.00 0.00 77 1025.3
20260504174552 13 141 1.6 6.4 0.00 0.00 0.00 77 1025.3
20260504174052 13 0 0.0 4.8 0.00 0.00 0.00 77 1025.2
20260504173556 13 141 0.0 4.8 0.00 0.00 0.00 77 1025.3
20260504173052 13 141 0.0 4.8 0.00 0.00 0.00 77 1025.2
20260504172551 13 0 0.0 3.2 0.00 0.00 0.00 76 1025.3
20260504172056 13 0 0.0 4.8 0.00 0.00 0.00 76 1025.2
20260504171552 13 0 0.0 4.8 0.00 0.00 0.00 76 1025.2
20260504171052 13 0 0.0 4.8 0.00 0.00 0.00 76 1025.2
20260504170551 13 0 0.0 4.8 0.00 0.00 0.00 76 1025.3
20260504151051 14 157 4.8 14.5 0.00 0.00 0.00 72 1025.6
20260504150552 14 157 4.8 14.5 0.00 0.00 0.00 72 1025.8
20260504141056 14 188 0.0 6.4 0.00 0.00 0.00 74 1025.9
20260504140552 14 188 0.0 6.4 0.00 0.00 0.00 74 1025.9
20260504140104 15 0 0.0 4.8 0.00 0.00 0.00 73 1026.0
20260504130552 15 190 1.6 6.4 0.00 0.00 0.00 73 1025.5
20260504110551 16 194 0.0 4.8 0.00 0.00 0.00 74 1025.9
20260504100551 17 212 1.6 8.0 0.00 0.00 0.00 69 1025.1
20260504081555 21 195 1.6 11.3 0.00 0.00 0.00 57 1024.6
20260504081053 21 259 3.2 12.9 0.00 0.00 0.00 57 1024.6
20260504080551 21 232 4.8 12.9 0.00 0.00 0.00 56 1024.7
20260504060106 22 352 1.6 6.4 0.00 0.00 0.00 50 1024.7
20260504050552 20 89 3.2 9.7 0.00 0.00 0.00 54 1025.3
20260504045551 20 101 1.6 9.7 0.00 0.00 0.00 54 1025.7
20260504045051 21 123 3.2 9.7 0.00 0.00 0.00 54 1025.6
20260504044555 20 126 0.0 4.8 0.00 0.00 0.00 57 1025.5
20260504044052 20 0 0.0 11.3 0.00 0.00 0.00 57 1025.7
20260504043552 20 126 1.6 11.3 0.00 0.00 0.00 57 1025.9
20260504043057 20 126 3.2 11.3 0.00 0.00 0.00 57 1026.1
20260504042554 20 174 1.6 11.3 0.00 0.00 0.00 57 1026.1
20260504042056 20 53 4.8 11.3 0.00 0.00 0.00 57 1026.2
20260504041552 20 88 1.6 6.4 0.00 0.00 0.00 58 1026.2
20260504041051 20 0 1.6 6.4 0.00 0.00 0.00 60 1026.2
20260504040553 19 101 1.6 9.7 0.00 0.00 0.00 60 1026.5
20260504040053 19 101 3.2 14.5 0.00 0.00 0.00 60 1026.5
20260504035550 19 101 6.4 14.5 0.00 0.00 0.00 59 1026.7
20260504035055 19 114 3.2 11.3 0.00 0.00 0.00 60 1026.7
20260504034556 19 121 1.6 12.9 0.00 0.00 0.00 61 1026.6
20260504034052 18 120 3.2 12.9 0.00 0.00 0.00 61 1026.8
20260504033552 18 119 4.8 12.9 0.00 0.00 0.00 62 1026.9
20260504033057 18 128 1.6 8.0 0.00 0.00 0.00 62 1027.0
20260504032552 18 129 4.8 11.3 0.00 0.00 0.00 62 1027.1
20260504032052 18 130 4.8 12.9 0.00 0.00 0.00 62 1027.1
20260504031605 18 111 3.2 14.5 0.00 0.00 0.00 63 1027.1
20260504031051 18 125 6.4 14.5 0.00 0.00 0.00 63 1027.1
20260504030551 18 343 3.2 12.9 0.00 0.00 0.00 64 1027.1
20260504030112 18 360 4.8 9.7 0.00 0.00 0.00 63 1027.3
20260504025552 17 19 4.8 12.9 0.00 0.00 0.00 64 1027.3
20260504025052 17 96 4.8 12.9 0.00 0.00 0.00 64 1027.4
20260504024552 17 101 4.8 12.9 0.00 0.00 0.00 65 1027.5
20260504024051 17 49 4.8 12.9 0.00 0.00 0.00 66 1027.7
20260504023551 17 53 4.8 16.1 0.00 0.00 0.00 66 1027.5
20260504023055 17 40 6.4 16.1 0.00 0.00 0.00 67 1027.6
20260504022550 16 345 6.4 16.1 0.00 0.00 0.00 67 1027.5
20260504022054 16 30 4.8 12.9 0.00 0.00 0.00 67 1027.5
20260504021605 16 63 6.4 12.9 0.00 0.00 0.00 68 1027.6
20260504021054 16 59 4.8 12.9 0.00 0.00 0.00 68 1027.5
20260504020552 16 99 6.4 14.5 0.00 0.00 0.00 68 1027.6
20260504020052 16 51 4.8 14.5 0.00 0.00 0.00 69 1027.5
20260504015552 16 50 6.4 16.1 0.00 0.00 0.00 70 1027.6
20260504015051 16 111 4.8 17.7 0.00 0.00 0.00 71 1027.6
20260504014553 15 76 8.0 17.7 0.00 0.00 0.00 70 1027.6
20260504014052 15 82 6.4 14.5 0.00 0.00 0.00 71 1027.5
20260504013552 15 74 6.4 14.5 0.00 0.00 0.00 71 1027.6
20260504013053 15 68 4.8 14.5 0.00 0.00 0.00 72 1027.6
20260504012550 15 12 8.0 16.1 0.00 0.00 0.00 73 1027.7
20260504012053 15 44 6.4 16.1 0.00 0.00 0.00 73 1027.7
20260504011555 15 74 6.4 17.7 0.00 0.00 0.00 72 1027.7
20260504011052 15 57 8.0 17.7 0.00 0.00 0.00 73 1027.8
20260504010552 15 50 6.4 14.5 0.00 0.00 0.00 74 1027.7
20260504010054 15 59 6.4 16.1 0.00 0.00 0.00 74 1027.8
20260504005551 15 33 4.8 16.1 0.00 0.00 0.00 75 1027.7
20260504005052 15 65 4.8 12.9 0.00 0.00 0.00 76 1027.6
20260504004555 14 85 4.8 12.9 0.00 0.00 0.00 76 1027.7
20260504004052 14 38 4.8 11.3 0.00 0.00 0.00 77 1027.6